Powrót do katalogu

STARLINK-37339

AktywnyŁącznośćSSO
NORAD 68735·PAYLOAD·🇺🇸 United States

Wystrzelony Apr 15, 2026 z Vandenberg Space Force Base

Loading…

Następne Przeloty (najbliższe 24 godziny)

TLE

ŚwieżeSource: CelesTrak SupGP

Epoka: Sep 14, 2026, 23:25 UTC

1 68735C 26082H   26257.97618056  .00086726  00000+0  26934-2 0  2572
2 68735  97.2847 120.2595 0001678  88.4707 233.3007 15.33379872    15

Śledź STARLINK-37339 w czasie rzeczywistym z AllMySat

Download on the App Store